This demonstration page uses our WeatherBlox Daily Observations layout. Learn more.

Left ArrowRight Arrow

41.12389, -100.76542

Hourly Observations for May 25, 2022

Temp ( °F °C ) Dew Point ( °F °C ) Humidity (%) Winds ( mph kmh ) Pressure ( in mb ) Visibility ( mi km ) Precip ( " mm )
12:53 am 00:53 Cloudy 48 8.9 44 6.7 86 86 N 8 13 30.00 1016 10 16 0.00 0.00
1:12 am 01:12 Cloudy 48 8.9 44 6.7 86 86 N 9 15 30.01 1016 10 16 0.00 0.00
1:51 am 01:51 Cloudy 48 9 43 6 82 82 N 8 13 29.99 1016 10 16 0.00 0.00
1:53 am 01:53 Cloudy 49 9.4 43 6.1 80 80 N 10 17 29.97 1015 10 16 0.00 0.00
2:53 am 02:53 Cloudy 48 8.9 43 6.1 83 83 N 9 15 29.97 1015 10 16 0.00 0.00
3:53 am 03:53 Cloudy 48 8.9 43 6.1 83 83 N 9 15 29.96 1015 10 16 0.00 0.00
4:53 am 04:53 Cloudy 48 8.9 43 6.1 83 83 N 9 15 29.97 1015 10 16 0.01 0.25
5:53 am 05:53 Cloudy 48 8.9 43 6.1 83 83 N 9 15 29.97 1015 10 16 0.00 0.00
6:53 am 06:53 Cloudy 48 8.9 43 6.1 83 83 N 10 17 29.98 1015 10 16 0.00 0.00
7:53 am 07:53 Cloudy 48 8.9 43 6.1 83 83 N 15 24 30.00 1016 10 16 0.00 0.00
8:53 am 08:53 Mostly Cloudy 52 11.1 43 6.1 72 72 NNE 18 30 29.98 1015 10 16 0.00 0.00
9:53 am 09:53 Sunny 53 11.7 43 6.1 69 69 NNE 18 30 29.97 1015 10 16 0.00 0.00
10:53 am 10:53 Sunny 57 13.9 44 6.7 62 62 N 18 30 29.96 1015 10 16 0.00 0.00
11:53 am 11:53 Mostly Cloudy 59 15 43 6.1 56 56 N 20 31 29.95 1014 10 16 0.00 0.00
12:53 pm 12:53 Mostly Sunny 62 16.7 43 6.1 50 50 N 21 33 29.94 1014 10 16 0.00 0.00
1:53 pm 13:53 Mostly Cloudy 63 17.2 41 5 45 45 NNE 20 31 29.92 1013 10 16 0.00 0.00
2:53 pm 14:53 Mostly Sunny 65 18.3 41 5 42 42 N 23 37 29.89 1012 10 16 0.00 0.00
3:53 pm 15:53 Mostly Sunny 68 20 41 5 38 38 N 23 37 29.86 1011 10 16 0.00 0.00
4:53 pm 16:53 Mostly Sunny 68 20 41 5 38 38 N 20 31 29.85 1011 10 16 0.00 0.00
5:53 pm 17:53 Sunny 68 20 40 4.4 36 36 N 16 26 29.84 1011 10 16 0.00 0.00
6:53 pm 18:53 Sunny 66 18.9 41 5 40 40 NE 17 28 29.84 1011 10 16 0.00 0.00
7:53 pm 19:53 Sunny 64 17.8 41 5 43 43 NNE 15 24 29.85 1011 10 16 0.00 0.00
8:53 pm 20:53 Sunny 58 14.4 41 5 53 53 NNE 10 17 29.87 1011 10 16 0.00 0.00
9:53 pm 21:53 Clear 53 11.7 41 5 64 64 NNE 7 11 29.88 1012 10 16 0.00 0.00
10:53 pm 22:53 Clear 50 10 41 5 71 71 NNE 7 11 29.89 1012 10 16 0.00 0.00
11:53 pm 23:53 Clear 49 9.4 41 5 74 74 NNE 8 13 29.89 1012 10 16 0.00 0.00

Powered by AerisWeather